W K Kellogg Airport Battle Creek US
ICAO: KBTL
IATA: BTL
Category: Medium
Scheduled Services: No

Elevation: 952 ft
TransAlt. 18000 ft.

Airport Communications:
KALAMAZOO APP/DEP:119.2
ATIS:128.325
CTAF:118.5
GND:121.7
ANG OPS:32.35
LANSING RDO:122.2
BATTLE CREEK TWR:126.825
UNICOM:122.95

KBTL Zoom In..

If you have problems with the map follow the link
https://www.worldairports.se/pages/airport.php?
ICAO=KBTL

Runways:

(A) RW 05L length 10004 ft width 150 ft
---- / hdg 47

(B) RW 05R length 4100 ft width 75 ft
---- / hdg 47

(C) RW 13 length 4835 ft width 100 ft
---- / hdg 130

(D) RW 23L length 4100 ft width 75 ft
---- / hdg 227

(E) RW 23R length 10004 ft width 150 ft
ILS 110.50 / hdg 227

(F) RW 31 length 4835 ft width 100 ft
---- / hdg 310

Location; KBTL
Day. 18 / Time. 01.53 Zulu
* Altimeter: 29.86
* Temperature: -05° c. -23°f.
* Wind from: 040° Speed 08 kn.
Dewpoint: -07° c.
Visibility: 6 Statute Miles.
Clouds: Overcast 900 ft.
Conditions: Mist.

KBTL 180153Z 04008KT 6SM BR OVC009 M05/M07 A2986 RMK AO2 CIG 006V011 SLP127 I1001 T10501067


Wind From 040°
Speed 08 kn.

 
 
jpsmedia.com for Web Design worldairports.se 2019   terms of use